Location: Unspecified
(0.0000°N, 0.0000°E)
Time: 21:12:21
(UTC+00:00)

Courier 1B Rocket - All Passes

Search period start: 11 February 2016 00:00
Search period end: 21 February 2016 00:00
Orbit: 921 x 1202 km, 28.2° (Epoch: 10 February)

Date Brightness Start Highest point End Pass type
(mag) Time Alt. Az. Time Alt. Az. Time Alt. Az.
11 Feb - 00:53:04 10° NNW 00:54:14 10° NNW 00:55:24 10° N night (unlit)
11 Feb - 06:36:16 10° NNW 06:42:05 23° NNE 06:47:40 10° ENE daylight
11 Feb - 08:28:45 10° NW 08:36:11 72° NNE 08:43:06 10° ESE daylight
11 Feb - 10:23:34 10° W 10:29:50 33° SSW 10:35:44 10° SSE daylight
11 Feb - 18:06:58 10° S 18:10:36 15° SSE 18:14:20 10° ESE daylight
11 Feb - 19:57:59 10° SW 20:04:22 56° SSE 20:11:13 10° ENE visible
11 Feb - 21:51:38 10° W 21:58:01 42° NNW 22:04:52 10° NE visible
11 Feb - 23:48:51 10° NW 23:52:30 14° NNW 23:56:15 10° N night (unlit)
12 Feb - 05:35:52 10° NNW 05:40:31 17° NNE 05:45:04 10° ENE visible
12 Feb - 07:27:39 10° NW 07:34:58 49° NNE 07:41:50 10° ESE daylight
12 Feb - 09:21:37 10° WNW 09:28:42 51° SSW 09:35:18 10° SE daylight
12 Feb - 11:19:03 10° WSW 11:22:37 15° SSW 11:26:07 10° S daylight
12 Feb - 18:57:31 10° SW 19:03:20 36° SSE 19:09:27 10° E visible
12 Feb - 20:50:19 10° WSW 20:56:51 62° NNW 21:03:52 10° NE visible
12 Feb - 22:46:05 10° WNW 22:50:57 20° NNW 22:56:01 10° NNE night (unlit)
13 Feb - 04:36:01 10° N 04:38:48 12° NNE 04:41:34 10° NE visible
13 Feb - 06:26:46 10° NW 06:33:38 34° NNE 06:40:12 10° E daylight
13 Feb - 08:19:58 10° WNW 08:27:33 76° SSW 08:34:36 10° SE daylight
13 Feb - 10:15:57 10° WSW 10:21:19 22° SSW 10:26:27 10° SSE daylight
13 Feb - 17:57:19 10° SSW 18:02:15 23° SSE 18:07:19 10° E daylight
13 Feb - 19:49:18 10° WSW 19:55:47 87° SSE 20:02:42 10° ENE visible
13 Feb - 21:43:57 10° W 21:49:33 27° NNW 21:55:29 10° NNE visible
14 Feb - 05:26:06 10° NNW 05:32:10 24° NNE 05:38:06 10° ENE visible
14 Feb - 07:18:37 10° NW 07:26:20 74° NNE 07:33:35 10° ESE daylight
14 Feb - 09:13:31 10° W 09:20:05 34° SSW 09:26:17 10° SSE daylight
14 Feb - 16:57:31 10° S 17:01:03 15° SSE 17:04:38 10° ESE daylight
14 Feb - 18:48:34 10° SW 18:54:47 57° SSE 19:01:18 10° ENE visible
14 Feb - 20:42:16 10° W 20:48:19 39° NNW 20:54:46 10° NE visible
14 Feb - 22:39:44 10° NW 22:42:44 13° NNW 22:45:48 10° N night (unlit)
15 Feb - 04:25:43 10° NNW 04:30:36 17° NNE 04:35:26 10° ENE visible
15 Feb - 06:17:31 10° NW 06:25:03 51° NNE 06:32:15 10° ESE daylight
15 Feb - 08:11:31 10° WNW 08:18:52 51° SSW 08:25:48 10° SE daylight
15 Feb - 10:08:57 10° WSW 10:12:56 15° SSW 10:16:47 10° S daylight
15 Feb - 17:48:05 10° SW 17:53:47 36° SSE 17:59:39 10° E daylight
15 Feb - 19:40:57 10° WSW 19:47:13 59° NNW 19:53:53 10° NE visible
15 Feb - 21:36:51 10° WNW 21:41:13 18° NNW 21:45:46 10° NNE visible
16 Feb - 03:25:54 10° N 03:28:53 12° NNE 03:31:53 10° NE visible
16 Feb - 05:16:39 10° NW 05:23:40 36° NNE 05:30:32 10° E visible
16 Feb - 07:09:52 10° WNW 07:17:39 75° SSW 07:25:01 10° SE daylight
16 Feb - 09:05:52 10° WSW 09:11:33 23° SSW 09:17:00 10° SSE daylight
16 Feb - 16:47:49 10° SSW 16:52:43 24° SSE 16:57:39 10° E daylight
16 Feb - 18:39:55 10° WSW 18:46:13 90° SE 18:52:48 10° ENE visible
16 Feb - 20:34:40 10° W 20:39:53 25° NNW 20:45:22 10° NNE visible
17 Feb - 04:16:01 10° NNW 04:22:13 25° NNE 04:28:22 10° ENE visible
17 Feb - 06:08:31 10° NW 06:16:22 76° NNE 06:23:56 10° ESE daylight
17 Feb - 08:03:26 10° W 08:10:15 34° SSW 08:16:44 10° SE daylight
17 Feb - 10:03:32 10° SSW 10:04:42 10° SSW 10:05:52 10° SSW daylight
17 Feb - 15:47:55 10° SSW 15:51:32 16° SSE 15:55:08 10° ESE daylight
17 Feb - 17:39:08 10° SW 17:45:15 58° SSE 17:51:33 10° ENE daylight
17 Feb - 19:32:56 10° W 19:38:43 37° NNW 19:44:48 10° NE visible
17 Feb - 21:30:53 10° NW 21:33:03 12° NNW 21:35:13 10° N visible
18 Feb - 03:15:44 10° NNW 03:20:39 18° NNE 03:25:36 10° ENE visible
18 Feb - 05:07:27 10° NW 05:15:02 53° NNE 05:22:31 10° ESE visible
18 Feb - 07:01:26 10° WNW 07:08:56 50° SSW 07:16:10 10° SE daylight
18 Feb - 08:58:49 10° WSW 09:03:09 16° SSW 09:07:22 10° SSE daylight
18 Feb - 14:49:13 10° SSE 14:50:12 10° SSE 14:51:10 10° SSE daylight
18 Feb - 16:38:33 10° SW 16:44:17 37° SSE 16:50:01 10° E daylight
18 Feb - 18:31:34 10° WSW 18:37:41 57° NNW 18:44:01 10° NE visible
18 Feb - 20:27:42 10° WNW 20:31:35 16° NNW 20:35:35 10° NNE visible
19 Feb - 02:16:04 10° N 02:18:59 12° NNE 02:21:55 10° NE visible
19 Feb - 04:06:38 10° NW 04:13:40 37° NNE 04:20:43 10° E visible
19 Feb - 05:59:48 10° WNW 06:07:39 74° SSW 06:15:18 10° SE daylight
19 Feb - 07:55:47 10° WSW 08:01:41 24° SSW 08:07:25 10° SSE daylight
19 Feb - 15:38:11 10° SSW 15:43:12 24° SSE 15:48:10 10° E daylight
19 Feb - 17:30:28 10° WSW 17:36:43 88° NNW 17:43:05 10° ENE daylight
19 Feb - 19:25:24 10° WNW 19:30:19 24° NNW 19:35:24 10° NNE visible
20 Feb - 03:06:06 10° NNW 03:12:14 26° NNE 03:18:27 10° E visible
20 Feb - 04:58:30 10° NW 05:06:20 78° NNE 05:14:08 10° ESE visible
20 Feb - 06:53:22 10° W 07:00:18 34° SSW 07:07:03 10° SE daylight
20 Feb - 08:52:57 10° SW 08:54:56 11° SSW 08:56:53 10° S daylight
20 Feb - 14:38:06 10° SSW 14:42:00 16° SSE 14:45:50 10° ESE daylight
20 Feb - 16:29:35 10° SW 16:35:46 60° SSE 16:41:56 10° ENE daylight
20 Feb - 18:23:34 10° W 18:29:11 35° NNW 18:34:57 10° NE daylight
20 Feb - 20:22:31 10° NNW 20:23:26 10° NNW 20:24:20 10° NNW visible
